Alice, TX

5:29 AM CST on February 24, 2017 (GMT -0600)
Alice International

Weather History for KALI - November, 2012

Change the Weather History Date:

Saturday, November 24, 2012

  Actual Average Record
Temperature  
Mean Temperature 60 °F -  
Max Temperature 68 °F 72 °F 88 °F (2010)
Min Temperature 51 °F 51 °F 33 °F (2003)
Degree Days  
Heating Degree Days 5    
Growing Degree Days 10 (Base 50)    
Moisture  
Dew Point 40 °F    
Average Humidity 48    
Maximum Humidity 80    
Minimum Humidity 25    
Precipitation  
Precipitation 0.00 in - - ()
Sea Level Pressure  
Sea Level Pressure 30.28 in    
Wind  
Wind Speed 9 mph (North)    
Max Wind Speed 14 mph    
Max Gust Speed 18 mph    
Visibility 10 miles    
Events      
Averages and records for this station are not official NWS values.
T = Trace of Precipitation, MM = Missing Value Source: NWS Daily Summary

Daily Weather History Graph

Daily Weather History Graph

Search for Another Location

Airport or City:

Trip Planner

Search our weather history database for the weather conditions in past years. The results will help you decide how hot, cold, wet, or windy it might be!

Date:

Astronomy

Nov. 24, 2012 Rise Set
Actual Time 7:00 AM CST 5:37 PM CST
Civil Twilight 6:35 AM CST 6:02 PM CST
Nautical Twilight 6:06 AM CST 6:30 PM CST
Astronomical Twilight 5:38 AM CST 6:59 PM CST
Moon 3:10 PM CST 3:33 AM CST
Length of Visible Light 11h 26m
Length of Day
10h 36m
Waxing Gibbous, 87% of the Moon is Illuminated
Nov 24
Waxing Gibbous
Nov 28
Full
Dec 6
Last Quarter
Dec 13
New
Dec 19
First Quarter

Hourly Weather History & Observations

Time (CST) Temp. Dew Point Humidity Pressure Visibility Wind Dir Wind Speed Gust Speed Precip Events Conditions
12:37 AM 62.6 °F 46.4 °F 55% 30.31 in 10.0 mi North 10.4 mph - N/A   Overcast
12:53 AM 63.0 °F 46.9 °F 56% 30.30 in 10.0 mi North 10.4 mph - N/A   Overcast
1:16 AM 62.6 °F 46.4 °F 55% 30.30 in 10.0 mi North 11.5 mph - N/A   Overcast
1:24 AM 62.6 °F 46.4 °F 55% 30.30 in 10.0 mi North 10.4 mph - N/A   Overcast
1:53 AM 62.1 °F 46.9 °F 58% 30.30 in 10.0 mi North 9.2 mph - N/A   Overcast
2:53 AM 62.1 °F 48.0 °F 60% 30.30 in 10.0 mi North 9.2 mph - N/A   Overcast
3:53 AM 62.1 °F 50.0 °F 65% 30.31 in 10.0 mi North 10.4 mph - N/A   Overcast
4:34 AM 62.6 °F 44.6 °F 52% 30.32 in 10.0 mi NE 13.8 mph - N/A   Overcast
4:53 AM 61.0 °F 46.0 °F 58% 30.31 in 10.0 mi NNE 8.1 mph - N/A   Overcast
5:53 AM 61.0 °F 45.0 °F 56% 30.31 in 10.0 mi North 9.2 mph - N/A   Overcast
6:53 AM 60.1 °F 37.0 °F 42% 30.33 in 10.0 mi NNE 12.7 mph - N/A   Overcast
7:53 AM 59.0 °F 36.0 °F 42% 30.35 in 10.0 mi NNE 8.1 mph - N/A   Overcast
8:53 AM 60.1 °F 32.0 °F 35% 30.36 in 10.0 mi NNE 13.8 mph - N/A   Overcast
9:53 AM 60.1 °F 30.9 °F 33% 30.37 in 10.0 mi NNE 10.4 mph - N/A   Overcast
10:53 AM 63.0 °F 30.0 °F 29% 30.37 in 10.0 mi NE 13.8 mph 18.4 mph N/A   Mostly Cloudy
11:53 AM 64.0 °F 30.0 °F 28% 30.33 in 10.0 mi North 5.8 mph - N/A   Overcast
12:53 PM 64.9 °F 30.9 °F 28% 30.29 in 10.0 mi North 9.2 mph - N/A   Overcast
1:53 PM 64.9 °F 30.0 °F 27% 30.26 in 10.0 mi NW 5.8 mph - N/A   Overcast
2:53 PM 66.9 °F 30.9 °F 26% 30.23 in 10.0 mi North 5.8 mph - N/A   Mostly Cloudy
3:53 PM 68.0 °F 30.9 °F 25% 30.20 in 10.0 mi NW 4.6 mph - N/A   Clear
4:53 PM 68.0 °F 33.1 °F 27% 30.20 in 10.0 mi NE 3.5 mph - N/A   Clear
5:53 PM 62.1 °F 35.1 °F 37% 30.19 in 10.0 mi Calm Calm - N/A   Clear
6:53 PM 61.0 °F 37.0 °F 41% 30.19 in 10.0 mi Calm Calm - N/A   Clear
7:53 PM 54.0 °F 39.0 °F 57% 30.21 in 10.0 mi Calm Calm - N/A   Clear
8:53 PM 53.1 °F 44.1 °F 71% 30.22 in 10.0 mi SSE 5.8 mph - N/A   Clear
9:53 PM 52.0 °F 44.1 °F 74% 30.20 in 10.0 mi SSE 4.6 mph - N/A   Clear
10:53 PM 52.0 °F 44.1 °F 74% 30.19 in 10.0 mi SW 3.5 mph - N/A   Clear
11:53 PM 51.1 °F 45.0 °F 80% 30.17 in 10.0 mi SW 3.5 mph - N/A   Clear